Regional Weather Roundup
Issued by NWS

Home | Current Version | Previous Version | Graphics & Text | Print | Product List | Glossary Off
Versions: 1 2 3 4 5 6 7 8 9 10 11 12 13 14 15 16 17 18 19 20 21 22 23 24 25 26 27 28 29 30 31 32 33 34 35 36 37 38 39 40 41 42 43 44 45 46 47 48 49 50

000
ASUS43 KBIS 280120
RWRND

NORTH DAKOTA REGIONAL WEATHER ROUNDUP
NATIONAL WEATHER SERVICE BISMARCK ND
800 PM CDT MON APR 27 2015

NOTE: "FAIR" INDICATES FEW OR NO CLOUDS BELOW 12,000 FEET WITH NO
SIGNIFICANT WEATHER AND/OR OBSTRUCTIONS TO VISIBILITY.


NDZ001>003-009>011-017-280200-
NORTHWEST NORTH DAKOTA

CITY           SKY/WX    TMP DP  RH WIND       PRES   REMARKS
WILLISTON      CLOUDY    58  37  45 SW9       30.27S
MINOT          CLEAR     53  39  59 SW5       30.26S
MINOT AFB      CLEAR     53  46  74 SW6       30.25S
$$

NDZ018>021-031>035-040>046-280200-
SOUTHWEST NORTH DAKOTA

CITY           SKY/WX    TMP DP  RH WIND       PRES   REMARKS
BISMARCK       CLOUDY    49  40  71 NW10      30.30S
DICKINSON      CLOUDY    47  38  71 NW6       30.29S
GARRISON         N/A     50  41  71 NW8       30.28F
HETTINGER ARPT CLOUDY    46  37  71 NW10      30.32S
$$

NDZ004>008-012>016-024-026-027-054-280200-
NORTHEAST NORTH DAKOTA

CITY           SKY/WX    TMP DP  RH WIND       PRES   REMARKS
GRAND FORKS    CLOUDY    54  41  61 N17       30.22R
GRND FRKS AFB  CLOUDY    53  41  64 N15       30.22R
DEVILS LAKE    CLOUDY    48  43  81 NW7       30.26R
$$

NDZ022-023-025-028>030-036>039-047>053-280200-
SOUTHEAST NORTH DAKOTA

CITY           SKY/WX    TMP DP  RH WIND       PRES   REMARKS
FARGO          MOCLDY    65  41  41 N29G35    30.15R
JAMESTOWN      CLOUDY    50  43  77 N14       30.24R
$$



USA.gov is the U.S. government's official web portal to all federal, state and local government web resources and services.